カタログに戻る

STARLINK-31184

運用中通信VLEO
NORAD 58793·PAYLOAD·🇺🇸 United States

打ち上げ Jan 15, 2024 から Cape Canaveral Space Force Station

Loading…

次のパス (今後24時間)

TLE

最新Source: CelesTrak SupGP

元期: Sep 15, 2026, 02:02 UTC

1 58793C 24012G   26258.08520833 -.00026386  00000+0 -95587-3 0  2584
2 58793  43.0016 175.4182 0001247 269.8675 111.0434 15.27585707    15

AllMySatでSTARLINK-31184をリアルタイム追跡

Download on the App Store